[[{"header":{"parameterUnit":"m.s-1","parameterCategory":1,"la1":30.2991,"la2":30.254,"lo1":-89.0895,"lo2":-89.0444,"dy":0.0017,"dx":0.0017,"nx":28,"ny":28,"refTime":"2024-09-04T03:00:00:Z","depth":0,"parameterNumber":2,"parameterNumberName":"U-component_of_WINDS"},"data":[0,0,0,0,0,0,0,0,0,0,0,0,0,0,0,0,0,0,0,0,0,0,0,0,0,0,0,0,0,0,0,0,0,0,0,0,0,0,0,0,0,0,0,0,0,0,0,0,0,0,0,0,0,0,0,0,0,0,-3.5998,-3.5997,0,-3.5984,-3.5984,-3.5984,-3.5921,-3.5919,-3.5918,-3.5917,-3.5903,-3.5904,-3.5905,0,0,0,0,0,0,0,0,0,0,0,0,0,-3.5972,-3.5973,-3.5998,-3.5997,-3.5997,-3.5984,-3.5984,-3.5984,-3.5921,-3.5919,-3.5918,-3.5916,-3.5902,-3.5904,-3.5905,0,0,0,0,0,0,0,0,0,0,0,0,0,-3.5973,-3.5973,-3.5998,-3.5964,-3.5961,-3.5984,-3.5984,-3.5984,-3.5922,-3.5919,-3.5917,-3.5915,-3.5902,-3.5903,-3.5905,-3.5958,0,0,-3.5909,-3.591,0,0,0,0,0,0,0,0,-3.5973,-3.5974,-3.597,-3.5967,-3.5963,-3.5952,-3.597,-3.5975,-3.5922,-3.5937,-3.5917,-3.5914,-3.5921,-3.5921,-3.5923,-3.5958,-3.5957,-3.591,-3.591,-3.5911,-3.5912,0,0,0,0,0,0,0,-3.5973,-3.5974,-3.5992,-3.597,-3.5966,-3.5951,-3.5949,-3.597,-3.5941,-3.5935,-3.5931,-3.593,-3.5919,-3.5922,-3.5922,-3.5957,-3.591,-3.5911,-3.5912,-3.5912,-3.6037,-3.6039,0,0,0,0,0,0,-3.5978,-3.5975,-3.5992,-3.5992,-3.5963,-3.5953,-3.5951,-3.5958,-3.5941,-3.5936,-3.5932,-3.5927,-3.592,-3.592,-3.5921,-3.5983,-3.5911,-3.5913,-3.5913,-3.6035,-3.6038,-3.604,0,0,0,0,0,0,-3.5977,-3.598,-3.5993,-3.5982,-3.5983,-3.5956,-3.5964,-3.5959,-3.5961,-3.5938,-3.5933,-3.594,-3.5918,-3.5919,-3.595,-3.5982,-3.5913,-3.5915,-3.6032,-3.6036,-3.6039,-3.6107,0,0,0,0,0,0,-3.5977,-3.598,-3.5999,-3.5983,-3.5983,-3.6021,-3.5966,-3.596,-3.5964,-3.5958,-3.5944,-3.594,-3.5917,-3.5948,-3.5952,-3.5983,-3.5916,-3.6029,-3.6033,-3.6038,-3.6102,-3.6113,-3.6122,0,0,0,0,0,-3.5976,-3.6018,-3.6,-3.6003,-3.6007,-3.6023,-3.6023,-3.5996,-3.5967,-3.5986,-3.5972,-3.594,-3.5979,-3.5952,-3.5955,-3.5987,-3.6027,-3.6032,-3.6037,-3.6097,-3.6111,-3.6122,0,0,0,0,0,0,-3.6038,-3.6015,-3.5995,-3.6033,-3.6031,-3.6013,-3.6036,-3.601,-3.6015,-3.6009,-3.5975,-3.5973,-3.6009,-3.6001,-3.5972,-3.6039,-3.5997,-3.6004,-3.6042,-3.6054,-3.6064,-3.6064,-3.5917,0,0,0,0,0,-3.6056,-3.6071,-3.6051,-3.6087,-3.6087,-3.6062,-3.6068,-3.6047,-3.6043,-3.6042,-3.6029,-3.6027,-3.6038,-3.6046,-3.6055,-3.6102,-3.6099,-3.6126,-3.6136,-3.6144,-3.615,-3.6175,-3.6187,-3.6058,-3.6058,-3.6058,0,0,-3.6093,-3.6083,-3.6094,-3.6099,-3.6094,-3.6111,-3.6061,-3.608,-3.6093,-3.6044,-3.6072,-3.6064,-3.6059,-3.6099,-3.6115,-3.6094,-3.6185,-3.6151,-3.6158,-3.6159,-3.6182,-3.6194,-3.6205,-3.6062,-3.6061,-3.606,0,0,-3.617,-3.6164,-3.6193,-3.6191,-3.6185,-3.6169,-3.6177,-3.6163,-3.6156,-3.6184,-3.6149,-3.6164,-3.6184,-3.6182,-3.6184,-3.6265,-3.6236,-3.6269,-3.632,-3.6346,-3.6356,-3.6365,-3.6393,-3.6404,-3.6275,-3.6275,-3.6275,0,-3.6216,-3.624,-3.6211,-3.6234,-3.6238,-3.6197,-3.6227,-3.6226,-3.6224,-3.6228,-3.6204,-3.623,-3.6224,-3.6263,-3.6283,-3.6286,-3.6294,-3.6269,-3.6357,-3.6365,-3.6373,-3.64,-3.6411,-3.6279,-3.6279,-3.6278,-3.6278,0,-3.6298,-3.6315,-3.634,-3.634,-3.6347,-3.6373,-3.635,-3.6361,-3.6341,-3.6328,-3.6359,-3.6351,-3.6358,-3.6367,-3.6347,-3.6404,-3.6391,-3.6363,-3.6319,-3.639,-3.6415,-3.6425,-3.6285,-3.6283,-3.6282,-3.6281,0,0,-3.6408,-3.6395,-3.6404,-3.6405,-3.6398,-3.6411,-3.6437,-3.6445,-3.6455,-3.6457,-3.6478,-3.6498,-3.6473,-3.6476,-3.6456,-3.6479,-3.6544,-3.6448,-3.6447,-3.6465,-3.6607,-3.6627,-3.6639,-3.6526,-3.6528,-3.653,-3.6607,0,-3.648,-3.6522,-3.65,-3.6546,-3.6562,-3.6526,-3.6549,-3.6548,-3.6538,-3.6551,-3.654,-3.6555,-3.6521,-3.6522,-3.6543,-3.6531,-3.6571,-3.6526,-3.6545,-3.6546,-3.6546,-3.6652,-3.6672,-3.6745,-3.6616,-3.6618,-3.6619,0,-3.6568,-3.6575,-3.6623,-3.6615,-3.6621,-3.6642,-3.6649,-3.6662,-3.6662,-3.6653,-3.6658,-3.6634,-3.666,-3.662,-3.6656,-3.6626,-3.6634,-3.663,-3.6632,-3.6631,-3.6585,-3.6653,-3.6768,-3.6778,-3.6634,-3.6633,-3.6632,0,-3.6643,-3.6664,-3.6696,-3.6698,-3.669,-3.6705,-3.6703,-3.67,-3.6708,-3.6715,-3.6719,-3.673,-3.6735,-3.6744,-3.6724,-3.6697,-3.6764,-3.6721,-3.6757,-3.6758,-3.677,-3.6769,-3.6887,-3.6778,-3.6778,-3.6778,-3.6778,0,-3.6725,-3.6755,-3.673,-3.6749,-3.6783,-3.6758,-3.6793,-3.6787,-3.6786,-3.6804,-3.6774,-3.6792,-3.6766,-3.6782,-3.6767,-3.6799,-3.6802,-3.6796,-3.6792,-3.6798,-3.6799,-3.68,-3.6794,-3.6781,-3.678,-3.678,-3.6779,0,-3.6813,-3.6797,-3.6829,-3.682,-3.6819,-3.6844,-3.6837,-3.6855,-3.6845,-3.6869,-3.6873,-3.6857,-3.6874,-3.6857,-3.6873,-3.6863,-3.6907,-3.6896,-3.6907,-3.6903,-3.694,-3.6936,-3.7061,-3.7076,-3.6959,-3.696,-3.6961,0,-3.6864,-3.6887,-3.6882,-3.6893,-3.6892,-3.6909,-3.6917,-3.6896,-3.6905,-3.6909,-3.6927,-3.6942,-3.6953,-3.6983,-3.6973,-3.6986,-3.6974,-3.7017,-3.6975,-3.6982,-3.6974,-3.6972,-3.6974,-3.7025,-3.7026,-3.7027,-3.7028,0,-3.6958,-3.695,-3.6963,-3.6974,-3.6985,-3.6993,-3.6998,-3.7008,-3.6986,-3.6999,-3.7017,-3.7026,-3.7044,-3.706,-3.7071,-3.7069,-3.7045,-3.7042,-3.7051,-3.7056,-3.7062,-3.7059,-3.6928,-3.7038,-3.7037,-3.7037,-3.7036,-3.7036,-3.7028,-3.7048,-3.7048,-3.7064,-3.7067,-3.7073,-3.709,-3.7084,-3.7098,-3.7111,-3.7098,-3.7121,-3.7123,-3.7135,-3.7137,-3.7154,-3.7136,-3.7149,-3.7152,-3.7155,-3.716,-3.7061,-3.7156,-3.7156,-3.7156,-3.7156,-3.7155,0,-3.712,-3.7119,-3.7135,-3.7144,-3.7158,-3.7136,-3.7142,-3.7155,-3.7175,-3.7179,-3.7191,-3.7213,-3.723,-3.7223,-3.7237,-3.7253,-3.7243,-3.7258,-3.7255,-3.7255,-3.7176,-3.7166,-3.7266,-3.7266,-3.7266,-3.7266,-3.7266,-3.7266,-3.7169,-3.7201,-3.7194,-3.7228,-3.7227,-3.7249,-3.7254,-3.7261,-3.7264,-3.7291,-3.7304,-3.73,-3.7301,-3.7316,-3.7331,-3.7328,-3.7335,-3.7353,-3.7347,-3.7272,-3.7261,-3.725,-3.7241,-3.7355,-3.7355,-3.7425,-3.7426,-3.7426]},{"header":{"parameterUnit":"m.s-1","parameterCategory":1,"la1":30.2991,"la2":30.254,"lo1":-89.0895,"lo2":-89.0444,"dy":0.0017,"dx":0.0017,"nx":28,"ny":28,"refTime":"2024-09-04T03:00:00:Z","depth":0,"parameterNumber":3,"parameterNumberName":"V-component_of_WINDS"},"data":[0,0,0,0,0,0,0,0,0,0,0,0,0,0,0,0,0,0,0,0,0,0,0,0,0,0,0,0,0,0,0,0,0,0,0,0,0,0,0,0,0,0,0,0,0,0,0,0,0,0,0,0,0,0,0,0,0,0,1.0429,1.0428,0,1.038,1.038,1.0379,1.0361,1.0361,1.0361,1.0361,1.0309,1.0308,1.0306,0,0,0,0,0,0,0,0,0,0,0,0,0,1.0504,1.0503,1.0429,1.0428,1.0428,1.0381,1.038,1.0379,1.0361,1.0361,1.0361,1.0361,1.031,1.0308,1.0306,0,0,0,0,0,0,0,0,0,0,0,0,0,1.0465,1.0503,1.0429,1.0413,1.0411,1.0381,1.038,1.0379,1.0361,1.0361,1.0361,1.0362,1.031,1.0308,1.0306,1.0287,0,0,1.0299,1.0298,0,0,0,0,0,0,0,0,1.0468,1.0463,1.0416,1.0414,1.0412,1.0377,1.0387,1.0348,1.0361,1.038,1.0361,1.0362,1.0331,1.0327,1.0318,1.0284,1.0282,1.0298,1.0297,1.0296,1.0295,0,0,0,0,0,0,0,1.047,1.0464,1.041,1.0415,1.0413,1.0408,1.0403,1.038,1.0355,1.0378,1.0377,1.0371,1.033,1.032,1.0316,1.0281,1.0298,1.0296,1.0295,1.0294,1.0233,1.0232,0,0,0,0,0,0,1.0476,1.0467,1.0411,1.0408,1.0441,1.0406,1.04,1.0388,1.0355,1.035,1.0371,1.0371,1.0324,1.0319,1.0314,1.0291,1.0296,1.0294,1.0293,1.0233,1.0233,1.0232,0,0,0,0,0,0,1.0478,1.0471,1.0413,1.0437,1.0429,1.0405,1.0391,1.0387,1.0376,1.035,1.0345,1.0365,1.0324,1.0318,1.0295,1.0289,1.0293,1.0291,1.0233,1.0233,1.0233,1.0245,0,0,0,0,0,0,1.048,1.0472,1.0464,1.0437,1.0428,1.0394,1.0391,1.0386,1.0373,1.0372,1.0343,1.0338,1.0323,1.0298,1.0292,1.0286,1.0289,1.0234,1.0233,1.0233,1.0245,1.0245,1.0245,0,0,0,0,0,1.0483,1.0469,1.0464,1.0457,1.0419,1.0394,1.0389,1.0373,1.0373,1.0365,1.0348,1.0339,1.0291,1.0296,1.0289,1.0282,1.0234,1.0233,1.0233,1.0245,1.0245,1.0245,0,0,0,0,0,0,1.0494,1.0465,1.0459,1.0436,1.0418,1.0391,1.0381,1.0373,1.0353,1.0353,1.0333,1.0327,1.0306,1.0292,1.0298,1.0264,1.0262,1.026,1.0273,1.0273,1.0273,1.0277,1.0287,0,0,0,0,0,1.0495,1.0478,1.0452,1.0435,1.0426,1.0405,1.0394,1.0383,1.0363,1.0355,1.0336,1.0317,1.0297,1.0284,1.0265,1.0243,1.0237,1.0235,1.0235,1.0236,1.0234,1.0223,1.0222,1.0231,1.0231,1.0231,0,0,1.0494,1.0476,1.0466,1.0437,1.0421,1.0404,1.0399,1.038,1.0367,1.0352,1.0329,1.0315,1.0292,1.027,1.0259,1.0258,1.0231,1.0235,1.0235,1.0233,1.0222,1.0222,1.0221,1.023,1.023,1.023,0,0,1.0485,1.0469,1.0453,1.0439,1.0416,1.0403,1.0399,1.0374,1.0365,1.0342,1.0331,1.0315,1.0282,1.0266,1.0254,1.0242,1.0233,1.0236,1.0237,1.0226,1.0225,1.0225,1.0221,1.022,1.0235,1.0235,1.0235,0,1.0486,1.0461,1.0446,1.0429,1.0417,1.0404,1.0388,1.0374,1.0346,1.0338,1.0337,1.0296,1.028,1.0255,1.0252,1.0242,1.0238,1.0239,1.0227,1.0226,1.0225,1.0222,1.022,1.0235,1.0235,1.0235,1.0235,0,1.0465,1.0447,1.0437,1.0412,1.0399,1.0383,1.0365,1.0354,1.0345,1.0332,1.0311,1.0291,1.0268,1.0261,1.0252,1.0235,1.0235,1.0231,1.0229,1.0225,1.0222,1.022,1.0236,1.0236,1.0236,1.0236,0,0,1.0459,1.0428,1.0425,1.0414,1.039,1.0376,1.036,1.0339,1.033,1.0311,1.0297,1.0271,1.0268,1.0254,1.0243,1.0234,1.0227,1.0231,1.023,1.0231,1.0209,1.0212,1.0211,1.0222,1.0221,1.0221,1.0211,0,1.0447,1.0417,1.0405,1.0381,1.0366,1.0355,1.0341,1.0324,1.0313,1.0297,1.0284,1.0266,1.0262,1.0254,1.0245,1.023,1.0222,1.023,1.0208,1.0208,1.0214,1.0209,1.0212,1.0203,1.0209,1.0209,1.0209,0,1.0427,1.0411,1.0387,1.0366,1.0359,1.0347,1.0328,1.0314,1.0295,1.0287,1.0274,1.0264,1.0247,1.0247,1.0223,1.0229,1.022,1.0211,1.0211,1.0207,1.0208,1.0205,1.02,1.0198,1.0206,1.0207,1.0207,0,1.0427,1.0398,1.0381,1.0372,1.0347,1.0339,1.0329,1.0311,1.03,1.0283,1.0276,1.0257,1.0247,1.0233,1.0218,1.0219,1.0196,1.0195,1.0189,1.019,1.0184,1.0184,1.0177,1.0178,1.0178,1.0178,1.0179,0,1.0414,1.0399,1.038,1.0369,1.0353,1.0339,1.0324,1.0312,1.0297,1.0284,1.0273,1.0261,1.0243,1.0228,1.0217,1.02,1.0195,1.0188,1.0185,1.0189,1.019,1.0182,1.0182,1.0178,1.0178,1.0178,1.0178,0,1.0409,1.0396,1.0376,1.0356,1.035,1.0339,1.0322,1.0311,1.03,1.0283,1.0278,1.026,1.0243,1.0228,1.0204,1.0197,1.018,1.0176,1.0186,1.0184,1.018,1.0181,1.0166,1.0164,1.0168,1.0168,1.0168,0,1.0402,1.0391,1.037,1.0361,1.0351,1.0336,1.0326,1.0312,1.0302,1.0282,1.0273,1.0256,1.0241,1.0214,1.0198,1.0181,1.0177,1.0173,1.0174,1.0179,1.0177,1.0178,1.0177,1.0173,1.0173,1.0173,1.0173,0,1.039,1.0385,1.037,1.0354,1.0342,1.0329,1.0315,1.0308,1.0292,1.0281,1.0264,1.0252,1.023,1.0213,1.0194,1.0183,1.0175,1.0173,1.0171,1.0174,1.0181,1.0178,1.0186,1.0173,1.0173,1.0173,1.0173,1.0173,1.0384,1.0374,1.0359,1.0344,1.0332,1.032,1.031,1.0298,1.0284,1.0265,1.0258,1.0241,1.0225,1.02,1.0189,1.0176,1.0174,1.0171,1.017,1.0169,1.017,1.0184,1.0172,1.0172,1.0172,1.0172,1.0172,0,1.0372,1.0362,1.0349,1.033,1.0319,1.0315,1.03,1.029,1.0276,1.0262,1.0248,1.023,1.0214,1.0198,1.0182,1.0174,1.017,1.017,1.017,1.0168,1.0172,1.0176,1.0173,1.0173,1.0173,1.0173,1.0173,1.0173,1.0364,1.0349,1.0342,1.0321,1.0311,1.0295,1.0287,1.0276,1.0265,1.0245,1.0232,1.0223,1.0209,1.0191,1.0177,1.0173,1.0167,1.0168,1.0163,1.0167,1.0167,1.0167,1.0171,1.0167,1.0167,1.0159,1.0159,1.0159]}]]